Home   Weather   Weno   Past weeks

Flag for Micronesia Past Weather in Weno, Truk, Micronesia — Yesterday and Last 2 Weeks

Now
87 °F

More clouds than sun.


Feels Like: 101 °F
Forecast: 77 / 86 °F
Wind: 7 mph from Northeast

Location: Truk Intl / Moen Island

Current Time: Sep 26, 2016 at 12:05:49 PM

Latest Report: Sep 26, 2016 at 10:50 AM


Visibility: 15 mi

Pressure: 29.83 "Hg

Humidity: 77%

Dew Point: 79 °F

Location of WenoLocation

Past Weather in Weno — Graph

°F

Weno Temperature Yesterday

Maximum temperature yesterday: 84 °F (at 2:51 PM)
Minimum temperature yesterday: 76 °F (at 8:50 PM)
Average temperature yesterday: 80 °F

High & Low Weather Summary for the Past Weeks

 TemperatureHumidityPressure
High100 °F (Sep 12, 4:52 PM)99% (Sep 12, 1:59 AM)29.93 "Hg (Sep 12, 1:59 AM)
Low75 °F (Sep 16, 3:50 PM)51% (Sep 12, 4:52 PM)29.70 "Hg (Sep 24, 3:51 PM)
Average82 °F87%29.81 "Hg
* Reported Sep 11 10:50 AM — Sep 26 10:50 AM, Weno, Weather by CustomWeather, © 2016

Note: Actual official high and low records may vary slightly from our data, if they occured in-between our weather recording intervals... More about our weather records

Advertising

Weno Weather History for the Previous 24 Hours

Scroll right to see more
 ConditionsComfort  
Time TempWeatherWind HumidityBarometerVisibility
10:50 AM
Mon, Sep 26
87 °FMore clouds than sun.7 mph77%29.83 "Hg15 mi
9:50 AM86 °FMore clouds than sun.7 mph79%29.85 "Hg15 mi
8:50 AM83 °FMore clouds than sun.8 mph85%29.86 "Hg15 mi
7:55 AM83 °FMostly cloudy.8 mph86%29.86 "Hg15 mi
6:50 AM81 °FMostly cloudy.3 mph89%29.84 "Hg15 mi
5:50 AM76 °FMostly cloudy.3 mph96%29.83 "Hg15 mi
4:50 AM76 °FMostly cloudy.3 mph98%29.80 "Hg15 mi
3:50 AM76 °FMostly cloudy.3 mph98%29.80 "Hg15 mi
2:50 AM77 °FMostly cloudy.3 mph98%29.80 "Hg15 mi
1:50 AM76 °FMostly cloudy.3 mph98%29.80 "Hg15 mi
12:50 AM76 °FMostly cloudy.3 mph98%29.81 "Hg15 mi
11:50 PM
Sun, Sep 25
76 °FMostly cloudy.8 mph97%29.84 "Hg15 mi
10:50 PM77 °FMostly cloudy.14 mph97%29.87 "Hg15 mi
9:51 PM76 °FMostly cloudy.3 mph98%29.86 "Hg15 mi
8:50 PM76 °FMostly cloudy.6 mph98%29.85 "Hg15 mi
7:50 PM76 °FMostly cloudy.6 mph98%29.83 "Hg14 mi
6:50 PM78 °FMostly cloudy.6 mph98%29.80 "Hg14 mi
5:54 PM79 °FSprinkles. Mostly cloudy.3 mph96%29.79 "Hg12 mi
4:51 PM80 °FSprinkles. Cloudy.6 mph93%29.78 "Hg14 mi
3:50 PM83 °FCloudy.6 mph84%29.77 "Hg15 mi
2:51 PM84 °FCloudy.5 mph86%29.76 "Hg15 mi
1:51 PM83 °FCloudy.5 mph86%29.76 "Hg15 mi
12:51 PM83 °FCloudy.6 mph84%29.74 "Hg15 mi
Weather by CustomWeather, © 2016

See weather overviewHow to use our weather pages